User: anonymous   Login
Location: Unspecified
(0.0000°N, 0.0000°E)
Time: 21:57:20
(UTC+00:00)
Language:

NUSAT 2 - Orbit

View from above orbital plane
View from above orbital plane
View from above satellite
View from above satellite

Ground track
Ground track

The orbit data is extracted from the following two-line orbital elements,

1 41558U 16033C   17082.90975712 +.00002079 +00000-0 +82212-4 0  9991
2 41558 097.4708 162.4663 0012595 311.4222 048.5933 15.26563639045417
Epoch (UTC): 23 March 2017 21:50:03
Eccentricity: 0.0012595
inclination: 97.4708°
perigee height: 477 km
apogee height: 495 km
right ascension of ascending node: 162.4663°
argument of perigee: 311.4222°
revolutions per day: 15.26563639
mean anomaly at epoch: 48.5933°
orbit number at epoch: 4541

The dashed part of the orbit path shows where the satellite is in the earth's shadow,  

DLR